Flag for Australia

Past Weather in 12°28'18.1"S, 130°50'46.1"E, Australia — Yesterday and Last 2 Weeks

Currently: 84 °F. Clear. (Weather station: Darwin Airport, Australia). See more current weather

Past Weather in 12°28'18.1"S, 130°50'46.1"E — Graph

°F

12°28'18.1"S, 130°50'46.1"E Temperature Yesterday

Maximum temperature yesterday: 93 °F (at 1:30 pm)
Minimum temperature yesterday: 75 °F (at 6:30 am)
Average temperature yesterday: 84 °F

High & Low Weather Summary for the Past Weeks

 TemperatureHumidityPressure
High93 °F (May 4, 1:30 pm)94% (May 9, 7:00 am)29.98 "Hg (May 9, 7:00 am)
Low73 °F (May 7, 6:30 am)32% (May 18, 3:30 pm)29.74 "Hg (May 4, 2:00 pm)
Average83 °F61%29.88 "Hg
* Reported May 3 7:30 pm — May 18 7:30 pm, 12°28'18.1"S, 130°50'46.1"E. Weather by CustomWeather, © 2024

Note: Actual official high and low records may vary slightly from our data, if they occured in-between our weather recording intervals... More about our weather records

12°28'18.1"S, 130°50'46.1"E Weather History for the Previous 24 Hours

Scroll right to see more
 ConditionsComfort  
Time TempWeatherWind HumidityBarometerVisibility
7:30 pm
Sat, May 18
86 °FClear.7 mph46%29.86 "Hg10 mi
7:00 pm86 °FClear.6 mph43%29.83 "Hg10 mi
6:30 pm88 °FSunny.6 mph40%29.83 "Hg10 mi
6:00 pm90 °FSunny.10 mph38%29.80 "Hg10 mi
5:30 pm91 °FSunny.12 mph36%29.80 "Hg10 mi
4:30 pm93 °FSunny.13 mph32%29.80 "Hg10 mi
4:00 pm93 °FSunny.10 mph34%29.77 "Hg10 mi
3:30 pm93 °FSunny.16 mph32%29.77 "Hg10 mi
3:00 pm91 °FSunny.14 mph36%29.80 "Hg10 mi
2:30 pm93 °FSunny.14 mph36%29.80 "Hg10 mi
2:00 pm91 °FSunny.13 mph36%29.80 "Hg10 mi
1:30 pm90 °FSunny.17 mph38%29.83 "Hg10 mi
1:00 pm90 °FSunny.16 mph38%29.83 "Hg10 mi
12:30 pm90 °FSunny.18 mph41%29.86 "Hg10 mi
12:00 pm90 °FSunny.18 mph41%29.89 "Hg10 mi
11:30 am88 °FSunny.21 mph43%29.89 "Hg10 mi
11:00 am88 °FSunny.18 mph46%29.89 "Hg10 mi
10:30 am86 °FSunny.21 mph43%29.92 "Hg10 mi
10:00 am86 °FSunny.16 mph46%29.92 "Hg10 mi
9:30 am84 °FSunny.12 mph48%29.92 "Hg10 mi
9:00 am81 °FSunny.10 mph58%29.92 "Hg10 mi
8:30 am79 °FSunny.10 mph61%29.92 "Hg10 mi
8:00 am77 °FSunny.8 mph65%29.89 "Hg10 mi
7:30 am73 °FSunny.8 mph74%29.89 "Hg10 mi
7:00 am73 °FClear.8 mph74%29.89 "Hg10 mi
6:30 am73 °FClear.5 mph74%29.89 "Hg10 mi
6:00 am75 °FClear.6 mph65%29.86 "HgN/A
5:30 am77 °FClear.7 mph61%29.89 "HgN/A
5:00 am79 °FClear.8 mph58%29.86 "HgN/A
4:30 am79 °FClear.9 mph58%29.86 "HgN/A
4:00 am79 °FClear.9 mph58%29.86 "HgN/A
3:30 am81 °FClear.10 mph54%29.86 "HgN/A
3:00 am81 °FClear.9 mph54%29.86 "HgN/A
2:30 am81 °FClear.10 mph54%29.86 "HgN/A
2:00 am82 °FClear.10 mph51%29.86 "HgN/A
1:30 am79 °FClear.7 mph61%29.86 "HgN/A
1:00 am81 °FPassing clouds.7 mph62%29.89 "HgN/A
12:30 am81 °FMostly cloudy.5 mph62%29.89 "HgN/A
12:00 am81 °FPassing clouds.5 mph66%29.89 "HgN/A
11:30 pm
Fri, May 17
81 °FClear.3 mph79%29.89 "Hg10 mi
11:00 pm79 °FClear.3 mph79%29.89 "Hg10 mi
10:30 pm79 °FClear.1 mph79%29.89 "Hg10 mi
10:00 pm81 °FClear.No wind74%29.89 "Hg10 mi
9:30 pm82 °FClear.1 mph70%29.89 "Hg10 mi
Weather by CustomWeather, © 2024

See weather overview